Showing default

O3B FM19, 44113

Orbit data source: Space-Track

O3B FM19, 44113 is a payload satellite owned by O3B SES (JE) that was launched on Thu, 04 Apr 2019 UTC via a SOYUZ-ST-B launch vehicle from the French Guiana (FRGUI). Payload-class satellites include a variety of spacecraft equipped with specific instruments for various scientific and technological missions. These include communications satellites like Starlink; space stations such as the ISS; scientific satellites like the Hubble; Earth observation satellites from companies like Planet Labs, Umbra, and HawkEye 360; GPS; miniature CubeSats for education and research; and military/defense satellites.

Loading next visibility...
Identifier
44113, 2019-020B
Orbit
Active
Country
Flag of UnknownUnknown / O3B
Related business
Manufacturer
Thales Alenia
Mission
Operational Commercial Communications
Bus & Motor
PRISMA?, LS-400 AOCS?
Mass
700 kg wet, ~500 kg dry
Launch date (UTC)
2019-04-04 (7 years ago)
Launch vehicle
SOYUZ-ST-B
Launch site
French Guiana (FRGUI)
Object type
Payload
Rocket body
Debris
Shape & HBR
Trap Box + 2 Pan, 6.0 m
Radar Cross Section
21.980 m², Large (>1 m²)

Expand to show TLE details & history
Last TLE update: 5 days ago

TLE from 5 days ago
0 O3B FM19
1 44113U 19020B   26146.25108215 -.00000023  00000-0  00000-0 0  9994
2 44113   0.0661 341.7705 0003987  68.4615 309.8031  5.00116140130345
Epoch: 2026-05-26T06:01Z
TLE epoch observation values (Epoch: 2026-05-26T06:01:33.497Z)
Latitude
0.02434°
Longitude
25.78321°
Altitude
8,060.669 km
Speed
5.256 km/s
True Right ascension
23h 59m 59s
True Declination
0° 01' 27"
Sunlit
Object was in daylight at epoch
Visualization orbit readout
Latitude
Unknown
Longitude
Unknown
Altitude
Unknown
Speed
Unknown
Apparent Right ascension
Unknown
Apparent Declination
Unknown
Sunlit
N/A
Visualization observer readout
Local Sidereal Time
10:25:46
Azimuth
Unknown
Elevation
Unknown
Doppler factor
Unknown
Orbital elements
Apogee altitude
8,074.696 km
Perigee altitude
8,063.176 km
Semi-major axis
14,447.073 km
Eccentricity
0.0004
Inclination
0.0661°
RAAN
341.7705°
Arg. of periapsis
68.4615°
True anomaly
309.76799°
Mean anomaly
309.8031°
Eccentric anomaly
309.78555°
Mean motion
1.24989 °/min
Orbital period
288.02 mins
BSTAR
0
Loading maneuver chart data...
Computing Atmospheric mass density...
Loading historical data...
Loading historical data...
Loading historical data...
Loading historical data...
Loading historical data...
Loading historical data...
Loading historical data...
Other satellites on launch #20 in the year 2019 (2019-04-04 UTC)

Documentation

Showing up to 5 results
|